This is the latest recevied weather packets stored in our database for station/object GBTWP-2. If no packets are shown the sender has not sent any weather packets the latest 10 day(s).
| Time | Temp. | Humidity | Pressure | Rain* | Wind** | Luminosity | Snow |
|---|---|---|---|---|---|---|---|
| 1787952120 | 23.33° C | 53% | 1024 hPa | 0 mm | - | 131 W/m² | - |
| 1787951820 | 23.33° C | 53% | 1023.9 hPa | 0 mm | - | 143 W/m² | - |
| 1787951520 | 23.33° C | 53% | 1024 hPa | 0 mm | - | 166 W/m² | - |
| 1787951220 | 23.33° C | 53% | 1023.9 hPa | 0 mm | - | 172 W/m² | - |
| 1787950920 | 23.33° C | 53% | 1023.9 hPa | 0 mm | - | 151 W/m² | - |
| 1787950620 | 22.78° C | 54% | 1023.9 hPa | 0 mm | - | 145 W/m² | - |
| 1787950320 | 22.78° C | 53% | 1024 hPa | 0 mm | - | 185 W/m² | - |
| 1787950020 | 22.78° C | 53% | 1023.9 hPa | 0 mm | - | 120 W/m² | - |
| 1787949720 | 22.78° C | 53% | 1024.1 hPa | 0 mm | - | 105 W/m² | - |
| 1787949420 | 23.89° C | 51% | 1024 hPa | 0 mm | - | 137 W/m² | - |
| 1787949120 | 23.89° C | 51% | 1023.9 hPa | 0 mm | - | 261 W/m² | - |
| 1787948823 | 23.89° C | 50% | 1024.1 hPa | 0 mm | - | 495 W/m² | - |
| 1787948520 | 23.33° C | 50% | 1024.1 hPa | 0 mm | - | 209 W/m² | - |
| 1787948217 | 23.33° C | 50% | 1024.1 hPa | 0 mm | - | 456 W/m² | - |
| 1787947920 | 23.33° C | 52% | 1024.2 hPa | 0 mm | - | 224 W/m² | - |
| 1787947621 | 23.33° C | 52% | 1024.3 hPa | 0 mm | - | 285 W/m² | - |
| 1787947318 | 22.78° C | 53% | 1024.2 hPa | 0 mm | - | 180 W/m² | - |
| 1787947020 | 23.33° C | 53% | 1024.2 hPa | 0 mm | - | 197 W/m² | - |
| 1787946717 | 23.33° C | 51% | 1024.2 hPa | 0 mm | - | 148 W/m² | - |
| 1787946420 | 23.89° C | 52% | 1024.2 hPa | 0 mm | - | 186 W/m² | - |
| 1787946120 | 23.33° C | 54% | 1024.2 hPa | 0 mm | - | 310 W/m² | - |
| 1787945818 | 22.78° C | 53% | 1024.1 hPa | 0 mm | - | 375 W/m² | - |
| 1787945519 | 23.33° C | 55% | 1024 hPa | 0 mm | - | 203 W/m² | - |
| 1787945219 | 23.33° C | 54% | 1024.2 hPa | 0 mm | - | 146 W/m² | - |
| 1787944919 | 23.33° C | 54% | 1024.5 hPa | 0 mm | - | 229 W/m² | - |
* Rain latest hour (hover to see other rain measurements)
** Current wind speed in m/s (hover to see current wind gust speed)